SCP
-0 0 0 0 0 0 -0 -0 -0 -0 -0 -0 -0 -0 -0 -0 -0 0 0 -0 -0 0 0 0 0 0 0 0 0 -0 0 0 0 0 -0 -0 0 0 0 0 0 -0 -0 -0 0
-0 -0 -0 -0 -0 -0 -0 -0 -0 -0 -0 -0 -0 -0 -0 -0 0 -0 -0 -0 -0 -0 0 0 0 0 0 0 0 0 0 0 0 -0 0 0 0 -0 0 0 -0 -0 0 -0 -0
-0 -0 -0 -0 -0 -0 -0 -0 -0 -0 -0 -0 -0 -0 -0 -0 0 -0 -0 -0 -0 0 0 0 0 0 0 0 0 0 0 0 0 0 0 0 -0 0 -0 -0 -0 -0 -0 -0 -0
-0 -0 -0 -0 -0 -0 -0 -0 -0 -0 -0 -0 -0 0 0 -0 0 0 -0 -0 0 0 0 0 0 0 0 0 0 0 0 0 0 0 0 -0 -0 0 0 0 -0 -0 -0 -0 -0
-0 -0 -0 -0 -0 -0 -0 -0 -0 -0 -0 -0 0 -0 -0 0 -0 -0 -0 -0 0 0 0 0 0 0 0 0 0 0 0 -0 0 0 0 0 0 0 0 0 -0 -0 -0 -0 0
-0 -0 -0 -0 -0 -0 -0 -0 -0 -0 -0 0 0 -0 -0 -0 0 -0 -0 0 -0 0 0 0 0 0 0 0 0 0 0 0 0 0 0 0 0 0 0 0 -0 -0 -0 0 -0
-0 -0 -0 -0 -0 -0 -0 -0 -0 -0 -0 -0 0 -0 -0 -0 -0 -0 -0 0 -0 0 0 0 0 0 0 0 0 0 0 0 0 0 0 0 0 0 0 0 -0 -0 -0 -0 0
-0 -0 -0 -0 -0 -0 -0 -0 -0 -0 -0 0 0 -0 -0 -0 0 -0 -0 0 0 0 0 0 0 0 0 0 0 0 0 0 0 -0 0 0 0 0 0 0 0 -0 0 -0 0
-0 -0 -0 -0 -0 -0 -0 -0 -0 -0 0 0 0 0 -0 0 0 0 -0 0 0 0 0 0 0 0 0 0 0 0 0 0 0 0 0 0 0 0 0 0 0 0 -0 -0 0
-0 -0 -0 -0 -0 -0 -0 -0 0 0 0 0 -0 0 -0 0 0 0 0 0 0 0 0 0 0 0 0 0 0 0 0 0 -0 -0 0 0 0 0 0 0 0 0 0 -0 -0
-0 -0 -0 -0 -0 -0 -0 0 0 0 -0 0 0 0 0 -0 0 0 0 0 -0 0 0 0 0 0 0 0 0 -0 0 0 0 0 0 0 0 0 0 0 0 0 0 0 0
-0 -0 -0 -0 -0 -0 0 0 0 0 0 0 -0 0 0 0 -0 0 -0 0 0 0 0 0 0 0 0 0 0 0 0 0 0 -0 0 0 0 0 0 0 -0 0 0 0 0
-0 -0 -0 -0 -0 0 0 0 -0 -0 0 0 -0 0 0 -0 -0 0 0 0 0 0 -0 0 -0 0 -0 -0 0 -0 0 0 0 0 0 0 0 0 0 0 0 0 0 0 0
-0 -0 -0 -0 0 0 0 0 -0 -0 0 -0 0 0 0 -0 -0 0 -0 0 0 -0 0 0 -0 0 0 0 0 0 0 0 0 0 0 -0 0 0 0 -0 0 0 0 0 0
-0 -0 -0 0 0 0 0 0 0 0 0 0 -0 0 -0 -0 -0 -0 -0 0 0 -0 -0 0 -0 0 0 0 0 0 0 0 0 0 0 0 0 0 0 0 0 0 0 0 0
-0 -0 -0 -0 0 0 0 0 0 0 0 0 0 0 0 -0 -0 -0 0 0 0 0 -0 0 0 0 0 0 0 0 0 0 -0 -0 0 0 0 0 0 0 0 0 0 0 0
-0 -0 0 0 0 0 0 0 0 0 0 0 0 0 -0 -0 -0 0 -0 0 0 0 0 -0 -0 -0 0 0 0 0 0 0 0 0 0 0 0 0 0 0 0 0 0 0 0
-0 -0 0 0 0 0 0 0 0 -0 -0 -0 0 0 0 -0 0 0 0 0 0 0 0 0 -0 0 -0 0 0 0 0 0 0 0 0 0 0 0 -0 -0 -0 -0 0 0 0
-0 0 0 0 0 0 0 0 0 0 0 0 0 0 0 0 0 0 0 0 0 0 0 0 0 0 0 -0 0 0 0 0 0 0 0 0 0 -0 0 0 0 0 0 0 0
0 0 0 0 0 0 0 0 0 0 0 0 0 0 0 0 0 0 0 0 0 0 0 0 0 0 0 -0 0 0 0 0 0 0 0 0 0 0 0 -0 0 0 0 0 0
0 0 0 0 0 0 0 0 0 0 0 0 0 0 0 0 0 0 0 0 0 0 0 0 0 0 0 -0 -0 0 0 0 0 0 0 0 0 -0 0 0 0 0 0 0 0
0 0 0 0 0 0 0 0 0 0 0 0 0 0 0 0 0 0 0 0 0 0 0 0 0 0 0 0 0 -0 0 0 0 0 0 0 0 -0 -0 0 0 0 0 0 0
0 0 0 0 0 0 0 0 0 0 0 0 0 0 0 0 0 0 0 0 0 0 0 0 0 0 0 0 0 0 -0 0 0 0 0 0 0 0 0 -0 -0 0 0 0 0
0 0 0 0 0 0 0 0 0 0 0 0 0 0 0 0 0 0 0 0 0 0 0 0 0 0 0 0 0 0 0 0 0 0 0 0 0 0 0 0 0 0 0 0 0
0 0 0 0 0 0 0 0 0 0 0 0 0 0 0 0 0 0 0 0 0 0 0 0 0 0 0 0 0 0 0 -0 -0 0 0 0 0 0 -0 0 0 0 0 0 0
0 0 0 0 0 0 0 0 0 0 0 0 0 0 0 0 0 0 0 0 0 0 0 0 0 0 0 0 0 0 0 -0 -0 0 0 0 -0 0 0 0 0 0 0 0 0
0 0 0 0 0 0 0 0 0 0 0 0 0 0 0 0 0 0 0 0 0 0 0 0 0 0 0 0 0 0 0 0 0 0 0 0 -0 -0 0 0 0 0 0 0 0
Wind_Speed_500mb
40 40 40 40 40 40 39 37 33 33 31 27 25 24 24 23 20 20 23 14 11 20 13 8 9 7 13 27 25 33 5 21 14 35 30 18 20 43 46 55 25 19 67 68 58
41 41 41 41 41 41 39 37 33 30 32 31 25 25 27 28 25 31 16 13 12 16 19 14 16 19 29 31 27 16 8 18 7 23 20 22 10 49 29 48 53 61 59 60 56
43 42 42 42 42 41 38 36 33 30 30 31 26 26 28 29 22 10 12 9 22 22 19 17 24 24 41 42 43 34 22 24 17 41 60 52 49 44 50 25 66 71 71 62 56
43 44 43 43 42 41 38 36 33 30 29 29 28 26 27 25 4 10 6 13 17 18 19 8 17 27 12 15 39 14 44 43 11 55 49 25 48 33 57 48 74 75 73 67 59
43 43 44 43 43 42 39 35 31 29 28 27 26 25 25 17 24 13 4 14 20 18 28 15 30 31 15 16 35 12 23 49 13 19 43 23 16 21 46 81 72 71 70 65 59
43 43 43 43 43 43 40 35 30 28 26 27 24 23 21 13 11 6 8 13 18 19 17 20 25 33 23 27 12 39 43 49 9 14 34 22 10 23 63 82 80 74 69 62 59
44 44 44 44 43 43 40 35 30 26 27 25 22 21 25 32 12 9 12 10 18 15 16 18 28 21 26 21 36 44 18 6 17 16 15 24 8 17 75 81 78 74 68 60 57
43 43 44 45 45 43 37 35 31 26 25 24 19 19 20 11 19 30 11 5 6 20 28 29 21 10 26 36 29 16 8 5 18 19 15 21 9 5 60 69 64 72 70 63 60
45 45 44 43 44 42 33 35 32 20 21 20 12 16 22 10 22 20 21 20 18 20 24 22 19 21 34 11 13 11 9 12 24 27 15 14 7 12 49 59 65 71 73 72 68
47 46 45 43 42 38 30 37 26 13 13 13 16 17 20 30 30 23 27 22 31 23 23 28 21 8 11 1 12 19 13 17 19 29 18 13 11 8 52 50 58 75 82 82 78
48 48 46 42 37 27 30 39 35 6 26 27 23 19 39 21 10 14 29 21 29 26 12 35 6 13 26 23 24 16 17 17 18 8 13 23 18 36 44 43 37 69 73 80 90
49 48 46 39 32 18 28 28 22 31 37 45 59 63 64 41 39 22 23 27 26 15 20 13 14 26 23 25 22 29 15 17 20 6 10 23 42 18 28 39 68 57 66 84 91
48 49 49 39 25 14 28 18 28 35 14 43 45 44 48 41 47 25 33 36 19 13 20 18 23 30 32 23 20 16 7 11 18 16 13 18 11 10 15 41 56 65 81 91 100
47 48 48 47 11 24 17 28 33 32 6 13 13 19 37 32 26 42 38 39 18 19 22 17 33 29 25 14 16 14 17 15 22 16 9 29 6 14 39 51 34 60 58 71 85
46 47 42 44 37 23 22 32 33 18 10 19 14 22 19 33 6 24 42 43 18 21 14 23 19 20 19 14 10 17 12 14 13 15 10 15 2 16 20 18 22 24 42 62 87
45 44 47 40 38 13 28 39 21 3 11 10 17 18 13 32 39 25 33 30 31 18 25 20 46 14 14 14 17 16 11 18 13 4 14 14 11 10 11 12 12 27 43 51 52
48 43 46 41 30 29 28 25 6 6 17 5 7 17 21 21 19 15 22 15 12 6 13 20 24 28 28 14 13 7 2 8 11 9 13 13 14 15 16 21 17 23 58 58 56
48 45 40 30 20 7 17 6 6 20 17 33 22 4 12 13 21 21 15 15 19 20 13 11 21 20 28 23 22 17 17 11 15 6 13 15 21 23 17 39 52 63 21 24 26
51 42 39 4 4 11 6 3 10 9 30 24 23 16 14 15 13 13 18 19 20 24 20 12 23 25 21 17 22 14 12 19 11 10 10 11 22 17 20 28 50 29 24 14 14
51 45 15 17 15 9 3 10 10 20 31 27 13 13 17 28 23 24 14 12 11 15 16 17 12 18 26 21 6 19 14 4 5 10 15 12 15 14 15 20 3 11 19 24 16
39 22 8 10 5 7 6 11 16 46 35 14 12 14 19 21 26 27 13 32 23 20 23 15 12 12 10 6 10 10 4 5 10 11 12 8 13 18 7 10 17 4 14 15 19
16 8 9 9 6 10 9 11 23 39 32 12 13 11 12 15 21 18 23 17 51 35 16 7 3 2 15 13 12 10 14 15 10 14 10 10 16 21 13 16 19 24 8 23 27
24 18 21 20 5 7 18 22 40 27 5 13 9 15 16 13 12 14 19 37 52 25 9 6 7 7 13 12 13 9 14 12 7 8 16 19 16 16 9 8 13 35 18 52 43
13 7 14 23 30 14 14 15 16 37 26 29 11 13 17 17 16 14 26 22 49 47 35 18 6 14 11 10 13 17 20 19 6 9 11 18 19 17 21 16 19 42 50 29 53
6 11 17 7 8 20 18 17 22 21 21 39 15 17 15 10 13 16 21 26 43 34 32 10 7 12 13 15 23 35 40 35 31 23 17 18 19 16 19 26 35 56 42 46 46
10 18 23 33 30 19 12 8 20 23 16 12 13 22 16 9 13 15 16 11 9 25 18 10 7 16 11 20 30 44 48 44 27 31 34 27 34 23 67 62 47 47 30 37 38
13 24 15 20 17 13 10 14 18 18 12 21 30 20 22 22 43 30 33 35 23 15 17 9 7 13 7 22 34 29 23 28 38 33 35 35 35 23 33 21 26 43 57 44 51
Wind_Direction_500mb
356 354 352 351 350 352 351 349 346 352 352 345 337 333 331 322 298 266 244 198 248 264 287 210 244 258 264 256 270 268 282 256 207 163 202 246 82 102 129 135 155 207 147 147 149
352 350 350 349 349 349 348 344 341 344 345 343 328 324 327 327 305 265 188 186 257 267 263 200 227 246 232 253 244 189 214 248 216 179 169 101 29 128 123 108 114 119 138 147 153
348 347 347 346 345 345 344 341 336 334 338 339 326 319 326 330 317 272 218 213 237 266 237 234 270 277 255 252 247 248 242 264 112 145 145 146 196 164 126 128 139 141 147 155 161
344 344 343 344 341 340 340 337 333 328 329 330 326 315 322 322 357 311 269 210 226 228 204 244 282 274 286 259 273 247 266 260 239 144 152 173 212 157 158 159 154 156 155 159 166
343 342 340 340 338 337 336 334 329 324 322 323 320 312 323 312 271 271 345 206 207 211 206 236 270 259 248 256 269 268 261 275 279 118 164 188 133 164 139 149 155 157 157 165 169
342 340 338 338 336 334 334 330 323 318 315 315 315 305 311 265 225 296 281 204 209 212 196 251 260 276 297 301 302 286 289 260 269 275 158 170 190 125 141 149 151 159 164 171 177
341 340 338 338 336 333 333 327 321 313 310 307 309 298 288 258 209 310 327 210 196 206 239 250 291 317 308 326 295 316 314 290 312 261 180 183 156 156 152 151 153 163 166 177 184
341 340 339 337 338 335 333 327 320 309 307 296 294 291 268 227 233 240 262 282 242 209 246 291 317 301 293 291 309 318 327 357 286 254 227 138 189 152 147 149 156 168 173 180 190
342 340 338 337 338 338 340 333 320 304 308 300 267 284 271 295 209 210 226 227 227 247 261 279 327 290 291 287 324 305 269 274 274 255 199 123 143 237 167 147 166 181 181 184 193
341 340 338 337 340 340 352 349 346 312 318 288 232 299 245 244 224 220 218 226 216 232 241 250 256 231 298 237 235 255 229 244 227 266 178 122 2 331 166 174 189 184 187 188 195
339 339 338 337 340 346 0 9 5 20 323 266 240 241 289 277 164 208 197 217 236 215 226 246 191 238 241 237 235 254 264 272 277 287 113 148 173 263 220 201 184 194 190 193 197
338 337 336 337 337 357 354 359 355 320 298 279 258 260 257 265 282 212 219 200 233 221 223 282 226 241 249 259 247 254 274 310 307 197 80 180 206 232 177 202 208 200 198 198 199
338 338 338 338 333 336 337 2 341 331 287 295 245 239 238 246 251 224 205 209 228 235 241 210 244 232 250 259 279 286 248 296 274 298 237 139 295 211 293 227 225 219 216 201 200
336 337 341 337 346 330 31 346 338 333 310 268 184 221 216 219 254 233 230 201 219 240 234 243 257 260 267 245 243 279 281 249 271 299 188 235 208 311 208 221 238 231 220 204 199
333 334 336 335 326 334 319 336 326 328 340 165 137 146 179 186 248 200 224 209 216 235 238 254 261 270 277 251 307 270 327 307 302 303 305 281 84 223 216 224 233 242 235 227 211
328 329 324 326 322 343 344 325 328 17 255 180 145 177 164 196 246 272 203 232 211 240 271 258 282 270 262 280 242 269 321 328 326 307 284 265 194 247 242 217 242 232 247 245 247
321 320 312 310 308 288 287 347 9 222 316 113 162 167 185 194 223 218 191 218 176 246 269 274 268 271 262 280 306 357 39 323 317 322 257 274 306 235 260 249 218 233 244 252 252
321 320 308 305 328 1 3 351 257 282 301 343 6 334 294 270 203 206 196 198 209 204 239 252 286 247 247 212 200 210 177 172 239 263 282 313 269 274 259 277 270 258 237 123 123
324 324 309 334 46 43 314 242 239 247 359 332 349 345 341 309 262 253 220 217 212 199 202 225 256 276 284 293 186 235 252 216 206 255 281 265 287 295 285 282 259 177 146 132 114
329 331 358 84 168 252 211 253 279 313 300 298 323 356 323 325 338 346 280 240 238 236 194 225 261 241 275 318 257 161 201 307 337 209 258 269 269 264 316 311 109 106 132 143 147
332 329 184 208 290 201 220 244 284 297 316 16 7 335 323 318 325 326 314 320 46 348 348 226 179 260 251 263 268 318 262 246 162 162 211 244 261 224 228 11 342 213 196 186 181
328 281 180 177 260 222 227 244 268 287 299 353 343 303 270 290 300 311 306 293 326 330 331 349 300 254 238 252 282 296 260 185 148 276 232 202 254 286 284 40 357 309 311 282 224
334 277 269 211 250 250 297 317 315 337 338 349 304 317 344 330 333 307 302 313 320 329 303 303 334 354 331 338 331 280 272 247 209 155 218 249 265 279 294 44 304 300 318 288 220
326 300 232 216 241 273 287 292 319 342 344 346 315 350 317 307 297 286 310 333 350 3 15 337 194 175 202 246 302 289 289 293 266 239 226 238 261 270 276 268 258 266 276 258 282
279 266 354 304 328 335 337 337 327 328 334 330 340 337 15 357 331 5 8 346 332 27 1 40 301 308 263 260 284 286 285 288 290 283 275 279 262 261 256 262 261 273 276 262 239
309 346 335 309 312 309 299 298 298 295 315 331 356 329 333 339 45 333 357 30 288 327 346 359 300 340 316 296 269 269 278 285 283 292 293 292 282 249 258 262 259 252 259 242 214
327 342 350 294 308 311 277 284 294 351 335 358 16 4 346 351 334 328 320 300 266 276 298 286 12 0 278 350 322 285 272 258 274 273 280 284 299 324 307 287 257 262 261 262 231
Wind_Speed_850mb
40 40 40 40 40 40 39 37 33 33 31 27 25 24 24 23 20 20 23 14 11 20 13 8 9 7 13 27 25 33 5 21 14 35 30 18 20 43 46 55 25 19 67 68 58
41 41 41 41 41 41 39 37 33 30 32 31 25 25 27 28 25 31 16 13 12 16 19 14 16 19 29 31 27 16 8 18 7 23 20 22 10 49 29 48 53 61 59 60 56
43 42 42 42 42 41 38 36 33 30 30 31 26 26 28 29 22 10 12 9 22 22 19 17 24 24 41 42 43 34 22 24 17 41 60 52 49 44 50 25 66 71 71 62 56
43 44 43 43 42 41 38 36 33 30 29 29 28 26 27 25 4 10 6 13 17 18 19 8 17 27 12 15 39 14 44 43 11 55 49 25 48 33 57 48 74 75 73 67 59
43 43 44 43 43 42 39 35 31 29 28 27 26 25 25 17 24 13 4 14 20 18 28 15 30 31 15 16 35 12 23 49 13 19 43 23 16 21 46 81 72 71 70 65 59
43 43 43 43 43 43 40 35 30 28 26 27 24 23 21 13 11 6 8 13 18 19 17 20 25 33 23 27 12 39 43 49 9 14 34 22 10 23 63 82 80 74 69 62 59
44 44 44 44 43 43 40 35 30 26 27 25 22 21 25 32 12 9 12 10 18 15 16 18 28 21 26 21 36 44 18 6 17 16 15 24 8 17 75 81 78 74 68 60 57
43 43 44 45 45 43 37 35 31 26 25 24 19 19 20 11 19 30 11 5 6 20 28 29 21 10 26 36 29 16 8 5 18 19 15 21 9 5 60 69 64 72 70 63 60
45 45 44 43 44 42 33 35 32 20 21 20 12 16 22 10 22 20 21 20 18 20 24 22 19 21 34 11 13 11 9 12 24 27 15 14 7 12 49 59 65 71 73 72 68
47 46 45 43 42 38 30 37 26 13 13 13 16 17 20 30 30 23 27 22 31 23 23 28 21 8 11 1 12 19 13 17 19 29 18 13 11 8 52 50 58 75 82 82 78
48 48 46 42 37 27 30 39 35 6 26 27 23 19 39 21 10 14 29 21 29 26 12 35 6 13 26 23 24 16 17 17 18 8 13 23 18 36 44 43 37 69 73 80 90
49 48 46 39 32 18 28 28 22 31 37 45 59 63 64 41 39 22 23 27 26 15 20 13 14 26 23 25 22 29 15 17 20 6 10 23 42 18 28 39 68 57 66 84 91
48 49 49 39 25 14 28 18 28 35 14 43 45 44 48 41 47 25 33 36 19 13 20 18 23 30 32 23 20 16 7 11 18 16 13 18 11 10 15 41 56 65 81 91 100
47 48 48 47 11 24 17 28 33 32 6 13 13 19 37 32 26 42 38 39 18 19 22 17 33 29 25 14 16 14 17 15 22 16 9 29 6 14 39 51 34 60 58 71 85
46 47 42 44 37 23 22 32 33 18 10 19 14 22 19 33 6 24 42 43 18 21 14 23 19 20 19 14 10 17 12 14 13 15 10 15 2 16 20 18 22 24 42 62 87
45 44 47 40 38 13 28 39 21 3 11 10 17 18 13 32 39 25 33 30 31 18 25 20 46 14 14 14 17 16 11 18 13 4 14 14 11 10 11 12 12 27 43 51 52
48 43 46 41 30 29 28 25 6 6 17 5 7 17 21 21 19 15 22 15 12 6 13 20 24 28 28 14 13 7 2 8 11 9 13 13 14 15 16 21 17 23 58 58 56
48 45 40 30 20 7 17 6 6 20 17 33 22 4 12 13 21 21 15 15 19 20 13 11 21 20 28 23 22 17 17 11 15 6 13 15 21 23 17 39 52 63 21 24 26
51 42 39 4 4 11 6 3 10 9 30 24 23 16 14 15 13 13 18 19 20 24 20 12 23 25 21 17 22 14 12 19 11 10 10 11 22 17 20 28 50 29 24 14 14
51 45 15 17 15 9 3 10 10 20 31 27 13 13 17 28 23 24 14 12 11 15 16 17 12 18 26 21 6 19 14 4 5 10 15 12 15 14 15 20 3 11 19 24 16
39 22 8 10 5 7 6 11 16 46 35 14 12 14 19 21 26 27 13 32 23 20 23 15 12 12 10 6 10 10 4 5 10 11 12 8 13 18 7 10 17 4 14 15 19
16 8 9 9 6 10 9 11 23 39 32 12 13 11 12 15 21 18 23 17 51 35 16 7 3 2 15 13 12 10 14 15 10 14 10 10 16 21 13 16 19 24 8 23 27
24 18 21 20 5 7 18 22 40 27 5 13 9 15 16 13 12 14 19 37 52 25 9 6 7 7 13 12 13 9 14 12 7 8 16 19 16 16 9 8 13 35 18 52 43
13 7 14 23 30 14 14 15 16 37 26 29 11 13 17 17 16 14 26 22 49 47 35 18 6 14 11 10 13 17 20 19 6 9 11 18 19 17 21 16 19 42 50 29 53
6 11 17 7 8 20 18 17 22 21 21 39 15 17 15 10 13 16 21 26 43 34 32 10 7 12 13 15 23 35 40 35 31 23 17 18 19 16 19 26 35 56 42 46 46
10 18 23 33 30 19 12 8 20 23 16 12 13 22 16 9 13 15 16 11 9 25 18 10 7 16 11 20 30 44 48 44 27 31 34 27 34 23 67 62 47 47 30 37 38
13 24 15 20 17 13 10 14 18 18 12 21 30 20 22 22 43 30 33 35 23 15 17 9 7 13 7 22 34 29 23 28 38 33 35 35 35 23 33 21 26 43 57 44 51
Wind_Direction_850mb
356 354 352 351 350 352 351 349 346 352 352 345 337 333 331 322 298 266 244 198 248 264 287 210 244 258 264 256 270 268 282 256 207 163 202 246 82 102 129 135 155 207 147 147 149
352 350 350 349 349 349 348 344 341 344 345 343 328 324 327 327 305 265 188 186 257 267 263 200 227 246 232 253 244 189 214 248 216 179 169 101 29 128 123 108 114 119 138 147 153
348 347 347 346 345 345 344 341 336 334 338 339 326 319 326 330 317 272 218 213 237 266 237 234 270 277 255 252 247 248 242 264 112 145 145 146 196 164 126 128 139 141 147 155 161
344 344 343 344 341 340 340 337 333 328 329 330 326 315 322 322 357 311 269 210 226 228 204 244 282 274 286 259 273 247 266 260 239 144 152 173 212 157 158 159 154 156 155 159 166
343 342 340 340 338 337 336 334 329 324 322 323 320 312 323 312 271 271 345 206 207 211 206 236 270 259 248 256 269 268 261 275 279 118 164 188 133 164 139 149 155 157 157 165 169
342 340 338 338 336 334 334 330 323 318 315 315 315 305 311 265 225 296 281 204 209 212 196 251 260 276 297 301 302 286 289 260 269 275 158 170 190 125 141 149 151 159 164 171 177
341 340 338 338 336 333 333 327 321 313 310 307 309 298 288 258 209 310 327 210 196 206 239 250 291 317 308 326 295 316 314 290 312 261 180 183 156 156 152 151 153 163 166 177 184
341 340 339 337 338 335 333 327 320 309 307 296 294 291 268 227 233 240 262 282 242 209 246 291 317 301 293 291 309 318 327 357 286 254 227 138 189 152 147 149 156 168 173 180 190
342 340 338 337 338 338 340 333 320 304 308 300 267 284 271 295 209 210 226 227 227 247 261 279 327 290 291 287 324 305 269 274 274 255 199 123 143 237 167 147 166 181 181 184 193
341 340 338 337 340 340 352 349 346 312 318 288 232 299 245 244 224 220 218 226 216 232 241 250 256 231 298 237 235 255 229 244 227 266 178 122 2 331 166 174 189 184 187 188 195
339 339 338 337 340 346 0 9 5 20 323 266 240 241 289 277 164 208 197 217 236 215 226 246 191 238 241 237 235 254 264 272 277 287 113 148 173 263 220 201 184 194 190 193 197
338 337 336 337 337 357 354 359 355 320 298 279 258 260 257 265 282 212 219 200 233 221 223 282 226 241 249 259 247 254 274 310 307 197 80 180 206 232 177 202 208 200 198 198 199
338 338 338 338 333 336 337 2 341 331 287 295 245 239 238 246 251 224 205 209 228 235 241 210 244 232 250 259 279 286 248 296 274 298 237 139 295 211 293 227 225 219 216 201 200
336 337 341 337 346 330 31 346 338 333 310 268 184 221 216 219 254 233 230 201 219 240 234 243 257 260 267 245 243 279 281 249 271 299 188 235 208 311 208 221 238 231 220 204 199
333 334 336 335 326 334 319 336 326 328 340 165 137 146 179 186 248 200 224 209 216 235 238 254 261 270 277 251 307 270 327 307 302 303 305 281 84 223 216 224 233 242 235 227 211
328 329 324 326 322 343 344 325 328 17 255 180 145 177 164 196 246 272 203 232 211 240 271 258 282 270 262 280 242 269 321 328 326 307 284 265 194 247 242 217 242 232 247 245 247
321 320 312 310 308 288 287 347 9 222 316 113 162 167 185 194 223 218 191 218 176 246 269 274 268 271 262 280 306 357 39 323 317 322 257 274 306 235 260 249 218 233 244 252 252
321 320 308 305 328 1 3 351 257 282 301 343 6 334 294 270 203 206 196 198 209 204 239 252 286 247 247 212 200 210 177 172 239 263 282 313 269 274 259 277 270 258 237 123 123
324 324 309 334 46 43 314 242 239 247 359 332 349 345 341 309 262 253 220 217 212 199 202 225 256 276 284 293 186 235 252 216 206 255 281 265 287 295 285 282 259 177 146 132 114
329 331 358 84 168 252 211 253 279 313 300 298 323 356 323 325 338 346 280 240 238 236 194 225 261 241 275 318 257 161 201 307 337 209 258 269 269 264 316 311 109 106 132 143 147
332 329 184 208 290 201 220 244 284 297 316 16 7 335 323 318 325 326 314 320 46 348 348 226 179 260 251 263 268 318 262 246 162 162 211 244 261 224 228 11 342 213 196 186 181
328 281 180 177 260 222 227 244 268 287 299 353 343 303 270 290 300 311 306 293 326 330 331 349 300 254 238 252 282 296 260 185 148 276 232 202 254 286 284 40 357 309 311 282 224
334 277 269 211 250 250 297 317 315 337 338 349 304 317 344 330 333 307 302 313 320 329 303 303 334 354 331 338 331 280 272 247 209 155 218 249 265 279 294 44 304 300 318 288 220
326 300 232 216 241 273 287 292 319 342 344 346 315 350 317 307 297 286 310 333 350 3 15 337 194 175 202 246 302 289 289 293 266 239 226 238 261 270 276 268 258 266 276 258 282
279 266 354 304 328 335 337 337 327 328 334 330 340 337 15 357 331 5 8 346 332 27 1 40 301 308 263 260 284 286 285 288 290 283 275 279 262 261 256 262 261 273 276 262 239
309 346 335 309 312 309 299 298 298 295 315 331 356 329 333 339 45 333 357 30 288 327 346 359 300 340 316 296 269 269 278 285 283 292 293 292 282 249 258 262 259 252 259 242 214
327 342 350 294 308 311 277 284 294 351 335 358 16 4 346 351 334 328 320 300 266 276 298 286 12 0 278 350 322 285 272 258 274 273 280 284 299 324 307 287 257 262 261 262 231